Location: *
(51.5000°N, 0.1100°W)
Time: 17:55:03
(UTC+00:00)

Daily predictions for brighter satellites

Satellite Brightness Start Highest point End
(mag) Time Altitude Azimuth Time Altitude Azimuth Time Altitude Azimuth
CENTAUR R/B 4.0 20:45:22 10° W 20:51:35 47° NNW 20:58:51 10° NE
ATLAS 3B R/B 4.2 20:46:48 10° W 20:53:07 40° NNW 20:59:21 10° NE
ATLAS 5 CENTAUR R/B 4.3 20:49:23 10° WNW 20:53:19 24° N 20:57:41 10° NE
Cosmos 332 Rocket 4.3 20:49:10 10° NNW 20:53:57 59° WSW 20:58:39 10° S
EO 1 Del DPAF 3.8 20:51:04 10° NNE 20:54:41 40° E 20:58:16 10° S
Cosmos 1408 4.4 20:53:29 10° SE 20:56:00 17° E 20:58:32 10° NE
Cosmos 1271 Rocket 3.3 20:52:47 10° SSW 20:56:39 62° WNW 21:00:35 10° N
Cosmos 1825 4.1 20:55:39 10° ESE 20:57:46 15° E 20:59:53 10° NE
USA 245 1.8 20:58:05 10° SSE 21:00:20 82° E 21:02:34 10° NNW
Terra 2.7 20:57:17 10° SE 21:01:39 37° ENE 21:06:02 10° N
Cosmos 1515 Rocket 4.1 20:58:05 10° N 21:02:20 45° ENE 21:06:30 10° SSE
Cosmos 1844 Rocket 3.7 20:57:30 10° NNW 21:02:47 37° NE 21:08:01 10° ESE
Cosmos 2263 Rocket 2.5 21:00:37 10° NW 21:06:18 69° WSW 21:11:57 10° SSE
MTI 4.4 21:03:18 10° N 21:06:25 58° WNW 21:09:32 10° SSW
Cosmos 2151 3.0 21:03:18 10° S 21:07:32 66° E 21:11:49 10° NNE
Cosmos 1766 Rocket 3.5 21:03:32 10° S 21:07:51 74° E 21:12:11 10° NNE
In-Cosmos 22 Rocket 4.2 21:02:57 10° S 21:08:17 63° E 21:13:46 10° NNE
H-2A R/B 4.0 21:04:53 10° SSW 21:09:33 28° W 21:14:12 10° NNW
Cosmos 2084 3.5 21:07:27 10° SW 21:11:58 71° SE 21:16:21 10° NE
Cosmos 2228 Rocket 3.8 21:07:51 10° N 21:12:12 43° ENE 21:16:30 10° SE
Cosmos 304 Rocket 3.9 21:08:42 10° NNW 21:13:33 76° WSW 21:18:21 10° SSE
DMSP B5D2-2 4.3 21:10:06 10° NNE 21:15:20 75° WNW 21:20:31 10° SSW
Cosmos 44 Rocket 4.3 21:11:15 10° S 21:15:36 29° ESE 21:19:54 10° ENE
Resurs 01 Rocket 3.7 21:13:32 10° SSW 21:17:09 24° W 21:20:47 10° NW
Cosmos 1408 Rocket 3.5 21:13:28 10° S 21:17:43 65° E 21:22:01 10° NNE
USA 267 4.3 21:14:02 10° SSE 21:19:53 34° SW 21:25:47 10° WNW
Cosmos 1892 2.7 21:17:12 10° S 21:21:00 64° E 21:24:49 10° NNE
Cosmos 44 3.4 21:19:22 10° SW 21:24:37 85° SE 21:29:38 10° NE
IGS 5A 3.5 21:23:16 10° SSE 21:27:26 86° WSW 21:31:39 10° NNW
Thor Agena Rocket 3.6 21:23:38 10° NNE 21:28:40 61° ESE 21:33:39 10° S
Aureole 1 Rocket 3.7 21:25:20 10° SSW 21:30:11 90° SW 21:36:44 10° NNE
Cosmos 1933 3.7 21:27:49 10° N 21:31:50 52° ENE 21:35:13 14° SSE
Cosmos 1844 4.4 21:27:34 10° NNW 21:32:58 46° NE 21:38:13 11° ESE
SPOT 5 3.0 21:28:36 10° SSE 21:33:45 87° WSW 21:38:41 10° NNW
Tiangong 2 2.9 21:37:44 10° SW 21:39:40 15° S 21:40:27 14° S
CARTOSAT-1 3.6 21:35:52 11° SSE 21:39:59 82° WSW 21:44:20 10° NNW
Cosmos 2251 Rocket 3.8 21:34:54 10° SSW 21:40:08 74° WNW 21:45:24 10° NNE
ASTEX 1 4.2 21:38:39 10° NNE 21:43:15 35° E 21:46:56 15° SSE
SL-23 DEB 4.4 21:40:12 10° WNW 21:44:38 40° SSW 21:46:56 17° SSE
Cosmos 921 Rocket 3.5 21:41:02 10° NNW 21:45:10 53° WSW 21:49:02 12° S
Cosmos 407 Rocket 4.3 21:41:32 12° SSE 21:45:50 35° ESE 21:50:39 10° NE
Cosmos 2360 Rocket 2.5 21:48:13 10° S 21:53:35 47° ESE 21:58:59 10° NE
Cosmos 1151 Rocket 4.0 21:50:24 10° NNW 21:54:35 44° W 21:58:44 10° SSW
ISS -2.2 21:58:12 18° SE 21:58:12 18° SE 21:59:59 10° E
Nadezhda 4 Rocket 4.3 21:51:13 10° NNW 21:57:30 67° W 22:03:41 10° S
Cosmos 1980 Rocket 4.0 21:53:34 10° WSW 21:58:42 35° NW 22:03:50 10° NNE
SPOT 1/Viking Rocket 4.4 21:54:12 10° S 21:59:08 45° W 22:04:08 10° NNW
Mayak 0.2 21:55:55 10° NE 21:59:21 23° E 22:01:25 17° SE
Cosmos 2034 Rocket 4.2 21:53:21 10° SSW 21:59:34 76° W 22:05:55 10° N
Cosmos 1606 2.7 21:56:25 10° N 22:00:13 68° ENE 22:02:46 19° SSE
Gbstr 26 Del rocket 2.7 21:57:17 10° SW 22:01:02 53° SSE 22:04:41 10° E
Meteor 1-26 Rocket 4.2 21:56:04 10° N 22:01:50 78° ENE 22:06:16 17° SSE
USA 229 DEB 4.2 21:56:25 10° S 22:02:20 36° ESE 22:08:30 10° NE
USA 229 4.2 21:56:32 10° S 22:02:27 36° ESE 22:08:36 10° NE
ERS-1 Rocket 4.0 21:58:01 10° SSW 22:02:45 40° W 22:07:31 10° NNW
Cosmos 1242 Rocket 4.4 21:59:28 10° SW 22:02:47 32° WNW 22:06:09 10° N
Lacrosse 5 3.1 21:58:49 10° WNW 22:03:42 45° N 22:08:34 10° ENE
Meteor 2-3 Rocket 4.0 21:59:45 14° S 22:04:35 55° E 22:10:16 10° NNE
Cosmos 1500 Rocket 3.6 22:03:48 11° S 22:08:09 86° WNW 22:12:39 10° N
Sich 1 3.9 22:08:45 19° SE 22:11:08 33° E 22:15:00 10° NNE
MOS 1 Rocket 3.1 22:06:53 10° NNE 22:11:15 69° ESE 22:14:59 15° S
Cosmos 1356 Rocket 3.8 22:07:18 10° NNW 22:11:32 65° W 22:14:48 17° S
Cosmos 614 Rocket 4.2 22:08:32 15° S 22:12:26 48° ESE 22:17:19 10° NE
Cosmos 1092 Rocket 4.1 22:06:17 10° NNW 22:12:34 77° W 22:17:54 15° S
Cosmos 1818 3.8 22:08:04 10° NW 22:13:33 67° NE 22:18:04 15° SE
CZ-2C R/B 3.8 22:14:37 10° N 22:19:35 43° WNW 22:24:28 10° SW
Cosmos 2333 Rocket 3.3 22:17:27 18° SE 22:20:17 27° ESE 22:25:01 10° NE
Cosmos 2322 Rocket 2.7 22:16:20 10° SW 22:22:00 64° NW 22:27:42 10° NNE
Helios 1B rocket 4.1 22:20:26 10° NE 22:23:29 20° E 22:24:59 16° ESE
Cosmos 2278 Rocket 3.1 22:19:45 10° NNW 22:25:08 42° NE 22:30:04 12° ESE
Lacrosse 5 rocket 2.9 22:20:54 10° WNW 22:25:20 42° N 22:29:40 10° ENE
SL-16 R/B 2.9 22:20:17 10° SW 22:25:51 55° NW 22:31:27 10° NNE
USA 215 3.9 22:19:34 10° ENE 22:25:57 58° N 22:32:22 10° W
Cosmos 2219 Rocket 3.1 22:23:07 19° SSE 22:26:03 31° ESE 22:30:56 10° NE
ATLAS CENTAUR R/B 3.2 22:22:35 10° NNW 22:27:00 33° NNE 22:31:11 10° E
SeaSat 1 3.7 22:23:01 10° NE 22:27:02 24° ESE 22:28:52 20° SE
SL-19 R/B 3.8 22:24:29 10° NNE 22:28:01 68° ESE 22:29:41 26° S
Cosmos 2084 Rocket 3.5 22:25:41 10° NW 22:30:07 84° NE 22:32:58 21° SE
Cosmos 1408 3.6 22:27:10 10° SSW 22:30:44 43° WNW 22:34:20 10° N
Cosmos 1825 2.7 22:29:38 13° SSW 22:32:51 55° WNW 22:36:35 10° N
SL-8 R/B 3.9 22:29:27 10° W 22:34:03 48° SSW 22:37:06 20° SE
Cosmos 2322 3.8 22:30:10 15° S 22:34:53 61° ESE 22:40:28 10° NE
Cosmos 1707 Rocket 3.6 22:31:03 10° N 22:35:31 81° E 22:38:09 24° SSE
Cosmos 1655 Rocket 4.1 22:30:45 10° N 22:37:01 67° ENE 22:41:19 21° SSE
Cosmos 1634 Rocket 4.0 22:31:45 14° S 22:37:16 87° W 22:43:33 10° N
Terra 3.1 22:35:36 13° SSW 22:39:26 34° W 22:43:47 10° NNW
ATLAS 5 CENTAUR R/B 4.2 22:35:14 10° NW 22:39:35 26° NNE 22:44:28 10° ENE
Cosmos 1782 2.8 22:36:52 10° N 22:40:56 88° W 22:43:07 26° S
Spot 4 3.8 22:38:41 23° SSE 22:41:42 88° E 22:46:32 10° NNW
Meteor 1-10 Rocket 4.4 22:36:36 10° N 22:42:11 65° ENE 22:45:53 22° SSE
Cosmos 1607 3.9 22:36:01 10° NW 22:42:11 77° SW 22:46:25 21° SSE
Cosmos 1900 4.4 22:37:58 10° SW 22:43:08 83° SE 22:48:19 10° NE
Cosmos 292 Rocket 4.2 22:38:44 10° NNW 22:43:29 54° WSW 22:46:23 22° S
SL-4 R/B 3.3 22:44:46 25° SSE 22:45:44 27° SE 22:49:40 10° E
Cosmos 1844 Rocket 3.2 22:41:23 10° NW 22:46:53 52° WSW 22:50:28 21° S
Cosmos 1633 3.8 22:48:09 23° ESE 22:49:10 26° E 22:52:12 10° NNE
Cosmos 2026 Rocket 4.3 22:43:37 10° NNW 22:49:34 59° W 22:54:08 18° SSW
Cosmos 1862 4.2 22:48:10 25° SE 22:49:45 35° E 22:53:25 10° NNE
Cosmos 1400 Rocket 4.3 22:46:29 10° N 22:50:10 30° ENE 22:52:28 18° ESE
Cosmos 2242 Rocket 4.5 22:46:32 10° N 22:50:50 40° ENE 22:53:21 21° SE
YAOGAN 11 4.2 22:49:09 26° SSE 22:51:30 68° ENE 22:55:48 10° N
Cosmos 2237 4.3 22:48:31 10° SW 22:54:12 79° WNW 22:59:57 10° NNE
Cosmos 44 Rocket 3.9 22:51:48 10° SW 22:56:53 62° NW 23:01:52 10° NE
BREEZE-M DEB (TANK) 2.3 22:55:47 10° W 22:58:20 67° S 23:05:15 10° E
Nimbus 7 Rocket 4.4 22:52:49 10° NNE 22:58:46 75° ESE 23:02:58 21° S
Cosmos 676 Rocket 4.0 22:55:11 20° SSW 22:58:47 73° ESE 23:04:03 10° NNE
Cosmos 1805 Rocket 3.9 22:56:49 18° SSW 22:59:58 61° WNW 23:04:19 10° N
Cosmos 2180 Rocket 4.4 23:00:38 22° S 23:04:48 78° E 23:10:57 10° NNE
Helios 1A 3.4 23:03:16 25° SSW 23:05:26 52° W 23:09:33 10° NNW
ALOS 2 2.6 23:07:55 28° SSE 23:10:10 74° ENE 23:14:34 10° N
Cosmos 1812 3.4 23:07:13 10° N 23:10:57 43° ENE 23:12:37 27° SE
Meteor 2-6 Rocket 4.2 23:05:36 10° NNW 23:11:00 73° W 23:14:16 25° S
COSMOS 2428 2.7 23:08:52 21° SSW 23:12:41 67° ESE 23:18:24 10° NE
GP-B 3.2 23:10:58 10° N 23:15:25 65° E 23:17:30 30° SSE
Cosmos 1954 Rocket 4.0 23:11:50 20° SSW 23:15:34 89° ESE 23:20:53 10° NNE
NOSS 3-1 (C) 3.3 23:11:26 13° SSW 23:16:37 75° SE 23:23:14 10° NE
SL-16 R/B 4.1 23:15:58 11° ESE 23:18:00 14° E 23:20:43 10° ENE
Cosmos 1850 Rocket 4.5 23:15:54 27° SSE 23:18:26 46° ESE 23:23:31 10° NE
BREEZE-M DEB (TANK) 1.9 23:16:53 10° W 23:19:00 56° S 23:22:29 10° E
Cosmos 1666 Rocket 3.8 23:17:13 24° SSW 23:19:53 68° WNW 23:24:23 10° N
Cosmos 1933 Rocket 4.0 23:20:12 29° SSE 23:22:04 48° E 23:26:19 10° NNE
Cosmos 1633 Rocket 3.1 23:22:33 26° SSW 23:24:54 72° W 23:29:16 10° N
BREEZE-M DEB (TANK) 3.8 23:15:30 10° WSW 23:28:29 70° S 23:31:46 10° E
Cosmos 1980 4.3 23:26:07 26° SSE 23:28:40 41° ESE 23:33:58 10° NE
ERS-2 2.3 23:29:30 33° SE 23:30:56 63° ENE 23:34:37 10° N
Cosmos 1862 Rocket 3.7 23:27:48 10° NNW 23:32:06 65° W 23:34:03 31° SSW
ISS -3.9 23:30:42 12° WSW 23:33:47 65° SSE 23:37:05 10° E
Cosmos 1140 Rocket 4.1 23:29:27 12° SW 23:34:05 55° WNW 23:39:13 10° NNE
Meteor 1-27 Rocket 3.8 23:28:44 10° NNW 23:34:37 83° W 23:38:02 27° S
Mayak -0.3 23:31:05 10° N 23:35:07 44° WNW 23:38:00 18° SW
Cosmos 2237 Rocket 2.7 23:34:17 27° SSE 23:36:50 43° ESE 23:42:08 10° NE
Okean 1-7 3.6 23:33:23 10° N 23:37:34 47° ENE 23:39:39 26° SE
Cosmos 2360 Rocket 3.5 23:32:28 10° WSW 23:37:44 39° NW 23:43:01 10° NNE
Cosmos 2266 Rocket 4.1 23:32:47 10° NNW 23:39:11 73° W 23:43:00 25° S
Cosmos 1470 Rocket 3.5 23:37:20 32° S 23:39:21 90° ESE 23:43:46 10° N
Lacrosse 5 2.3 23:42:13 10° WNW 23:47:17 64° NNE 23:52:19 10° ESE
Gbstr 26 Del rocket 2.6 23:43:58 10° W 23:47:43 85° N 23:51:36 10° E
Cosmos 540 Rocket 4.0 23:43:24 10° NNW 23:48:26 53° ENE 23:52:02 18° SE
Meteor 1-29 3.0 23:48:27 10° N 23:51:55 75° WNW 23:53:03 39° SSW
USA 229 DEB 4.0 23:46:16 10° WSW 23:52:55 69° NW 23:59:56 10° NE
Cosmos 841 Rocket 3.6 23:48:48 10° NNW 23:53:59 73° ENE 23:57:05 24° SE
